"Pseudo-MPEC" for 16A1801

Created 2021 Jun 13 6:07:03 UT using Find_Orb

Click here for an explanation of pseudo-MPECs

 
 Astrometry: 
     16A1801 KC2021 06 11Qs:c]V?3nLqDI_1HujPLU/HfQS71*0%m2b$,PrXGtK3gs*=ZiMjkW94
     16A1801 KC2021 06 119uD+,(;fu(Ny4XrFZF#+ZDXdavD*Ihu=d?HJG=jwEsP3QZ1I]p)[W94
     16A1801 KC2021 06 11OGC%EM)4IFRBHD?Gue@KRqNf]w#SZ_\[(/E:2ElUGIAstrometryW94
     16A1801 KC2021 06 11SfpNQ6S^a'JDXNRl3hMo*T$OH7NoFurSbh'mX4QspVrN*JuqlH@wW95
     16A1801 KC2021 06 11Vx%iUN5PFhlhredacted;I`F^ksT!k\_oW0bZP_click6O?otC.%W95
     16A1801 KC2021 06 11ivKWeW8WQl2v(rl:(TtYmdbf4aWh@!?k2?WDWhO#K_r=yUKM4rlPW95
     16A1801  C2021 06 11_V7y@le%]v#nRK?#dkAdFFk4?]dXcuXUtRG8=On)w2[Q9fwhere4474
     16A1801  C2021 06 11*wZv2S3P1wKi,yuSk9Zta=qsyM%l:xS`t?n.p%_uIkuDx@72;xPf474
     16A1801  C2021 06 11r):Qu.-!,`;[/CPi\K8M6%AN86hRqp)F$6forGeQ1Cao%fa,Aw1K474
     16A1801  C2021 06 11IRRk.^%hb]XcH/t,E5UJV0w9Bm?EEKk-/-2QJp03rsmunSt].y9J474
     16A1801  C2021 06 11/j+]]+\.vjq]VI-YuS,h(TB8*!+/evMp30!JrQni5$lv+Kq^2:ff474
     16A1801 |C2021 06 126BX@xdOc:V3explanation'f5+8@S\/XN,=TWUfKu,a=e\;)e$CB807
     16A1801 |C2021 06 12l$b[0!!=]1ueql?(G+.Blo:W+U`q4]9;!a%VC9'r%Rex52*C/v8I807
     16A1801 |C2021 06 12-DXG;F*.Ly/g%f*HYe@8+7Sruv[Kh*X2Y'c=iiy1A?oiRZdkRI\+807
     16A1801 KC2021 06 13uW[V(J::6WMtjac,`NNYCq2$5WV_9ZJw7,!Q8bM06=qTI2(QkL#WW95
     16A1801 KC2021 06 13*84:w'0XQ.I7/T7!qd1-')a+;D6`p9T,,H)4Y;?gWPsnRD3=Q:FmW95
     16A1801 KC2021 06 13y;76a)@;5c?nB44cSEnmJ=UuHNY9d[HUo]\3VP/kMx=AX1u(k87@W95

Station data:
(474) Mount John Observatory, Lake Tekapo  (S43.987388 E170.464960)  New
   Zealand.  Observers A. C. Gilmore, P. M. Kilmartin. Measurer P. M.
   Kilmartin. 1.0-m f/7.7 reflector + CCD.
(807) Cerro Tololo Observatory, La Serena  (S30.169136 W70.805900)  Chile.
(W94) AMACS1, San Pedro de Atacama  (S22.953076 W68.179810)  Chile.
(W95) Observatorio Panameno, San Pedro de Atacama  (S22.953181 W68.179880)
   Chile.

Orbital elements:  16A1801
   Perihelion 2021 May 9.617126 +/- 73.6249 TT = 14:48:39 (JD 2459344.117126)
Epoch 2021 Jun 13.0 TT = JDT 2459378.5                        AutoNEOCP
M   6.38227457 +/- 19.708135        (J2000 ecliptic)
n   0.18562364 +/- 0.0839055        Peri.  309.26401 +/- 44.647781
a   3.04355049 +/- 0.789842         Node   296.92090 +/- 9.0897610
e   0.3403401 +/- 0.0638712         Incl.   32.38715 +/- 9.3950692
P   5.31                   H 17.3   G  0.15   U 11.1  
q 2.00770795 +/- 0.39707    Q 4.07939303 +/- 1.20962
From 17 observations 2021 June 11-13; mean residual 0".79
Residuals in arcseconds: 
210611 W94  3.2-  2.2-    210611 474  .56+  .45+    210612 807  .09+  .09+    
210611 W94  .01-  .33+    210611 474  .42+  .52+    210612 807  .59-  .02+    
210611 W94  .71+  .31+    210611 474  .19+  .83+    210613 W95  .00   .47+    
210611 W95  .49+  .48+    210611 474  .49+  .74+    210613 W95  .17-  .53+    
210611 W95  .22+  .31+    210611 474  .41+  .75+    210613 W95  .12-  .19+    
210611 W95  .15+  .36+    210612 807  .21-  .08-    

Ephemerides (geocentric):
Date (UTC) HH   RA              Dec         delta   r     elong  mag " sig PA
---- -- -- --  -------------   -----------  ------ ------ -----  --- ---- ---
2021 06 13 06  17 42 11.378   -59 13 36.11  1.1116 2.0226 143.9 20.0 3.01  14
2021 06 13 07  17 42 06.998   -59 12 50.74  1.1116 2.0226 143.9 20.0 3.18  16
2021 06 13 08  17 42 02.619   -59 12 05.31  1.1115 2.0226 143.9 20.0 3.36  17
2021 06 13 09  17 41 58.243   -59 11 19.82  1.1114 2.0227 143.9 20.0 3.55  19
2021 06 13 10  17 41 53.868   -59 10 34.26  1.1113 2.0227 143.9 20.0 3.75  20
2021 06 13 11  17 41 49.496   -59 09 48.64  1.1113 2.0228 144.0 20.0 3.95  22
2021 06 13 12  17 41 45.126   -59 09 02.96  1.1112 2.0228 144.0 20.0 4.16  23
2021 06 13 13  17 41 40.757   -59 08 17.21  1.1111 2.0228 144.0 20.0 4.38  24
2021 06 13 14  17 41 36.391   -59 07 31.41  1.1110 2.0229 144.0 20.0 4.61  25
2021 06 13 15  17 41 32.027   -59 06 45.54  1.1110 2.0229 144.0 20.0 4.84  26
2021 06 13 16  17 41 27.665   -59 05 59.60  1.1109 2.0229 144.0 20.0 5.08  27
2021 06 13 17  17 41 23.305   -59 05 13.61  1.1108 2.0230 144.1 20.0 5.32  28
2021 06 13 18  17 41 18.947   -59 04 27.55  1.1107 2.0230 144.1 20.0 5.58  28
2021 06 13 19  17 41 14.592   -59 03 41.43  1.1107 2.0230 144.1 20.0 5.83  29
2021 06 13 20  17 41 10.238   -59 02 55.24  1.1106 2.0231 144.1 20.0 6.10  30
2021 06 13 21  17 41 05.887   -59 02 09.00  1.1105 2.0231 144.1 20.0 6.37  30
2021 06 13 22  17 41 01.538   -59 01 22.69  1.1105 2.0232 144.2 20.0 6.65  31
2021 06 13 23  17 40 57.191   -59 00 36.32  1.1104 2.0232 144.2 20.0 6.93  32
2021 06 14 00  17 40 52.846   -58 59 49.89  1.1103 2.0232 144.2 20.0 7.23  32
2021 06 14 01  17 40 48.504   -58 59 03.39  1.1102 2.0233 144.2 20.0 7.52  33
2021 06 14 02  17 40 44.164   -58 58 16.83  1.1102 2.0233 144.2 20.0 7.83  33
2021 06 14 03  17 40 39.826   -58 57 30.21  1.1101 2.0233 144.2 20.0 8.14  34
2021 06 14 04  17 40 35.490   -58 56 43.53  1.1100 2.0234 144.3 20.0 8.45  34
2021 06 14 05  17 40 31.157   -58 55 56.79  1.1100 2.0234 144.3 20.0 8.78  35
2021 06 14 06  17 40 26.826   -58 55 09.98  1.1099 2.0234 144.3 20.0 9.11  35
2021 06 14 07  17 40 22.498   -58 54 23.11  1.1098 2.0235 144.3 20.0 9.44  35
2021 06 14 08  17 40 18.172   -58 53 36.18  1.1098 2.0235 144.3 20.0 9.78  36
2021 06 14 09  17 40 13.848   -58 52 49.19  1.1097 2.0236 144.3 20.0 10.1  36
2021 06 14 10  17 40 09.526   -58 52 02.13  1.1096 2.0236 144.4 20.0 10.5  36
2021 06 14 11  17 40 05.207   -58 51 15.02  1.1096 2.0236 144.4 20.0 10.8  37
2021 06 14 12  17 40 00.890   -58 50 27.84  1.1095 2.0237 144.4 20.0 11.2  37
2021 06 14 13  17 39 56.576   -58 49 40.60  1.1094 2.0237 144.4 20.0 11.6  37
2021 06 14 14  17 39 52.264   -58 48 53.30  1.1094 2.0237 144.4 20.0 12.0  38
2021 06 14 15  17 39 47.955   -58 48 05.93  1.1093 2.0238 144.4 20.0 12.3  38
2021 06 14 16  17 39 43.648   -58 47 18.51  1.1092 2.0238 144.5 20.0 12.7  38
2021 06 14 17  17 39 39.344   -58 46 31.02  1.1092 2.0238 144.5 20.0 13.1  39
2021 06 14 18  17 39 35.042   -58 45 43.47  1.1091 2.0239 144.5 20.0 13.5  39
2021 06 14 19  17 39 30.742   -58 44 55.86  1.1090 2.0239 144.5 20.0 13.9  39
2021 06 14 20  17 39 26.445   -58 44 08.19  1.1090 2.0240 144.5 20.0 14.4  39
2021 06 14 21  17 39 22.151   -58 43 20.46  1.1089 2.0240 144.5 20.0 14.8  40
2021 06 14 22  17 39 17.859   -58 42 32.67  1.1089 2.0240 144.6 20.0 15.2  40
2021 06 14 23  17 39 13.570   -58 41 44.81  1.1088 2.0241 144.6 20.0 15.6  40
2021 06 15 00  17 39 09.284   -58 40 56.90  1.1087 2.0241 144.6 20.0 16.1  40
2021 06 15 01  17 39 05.000   -58 40 08.92  1.1087 2.0241 144.6 20.0 16.5  40
2021 06 15 02  17 39 00.718   -58 39 20.88  1.1086 2.0242 144.6 20.0 17.0  41
2021 06 15 03  17 38 56.439   -58 38 32.78  1.1085 2.0242 144.6 20.0 17.4  41
2021 06 15 04  17 38 52.163   -58 37 44.62  1.1085 2.0243 144.7 20.0 17.9  41
2021 06 15 05  17 38 47.890   -58 36 56.40  1.1084 2.0243 144.7 20.0 18.4  41